| time (UTC) | temp F | wind direction | speed knots | gust knots | rain 1hr in | rain 24hr in | rain mn in | humidity % | barometer mb |
| 20260510105034 | 65 | 52 | 0.0 | 1.7 | 0.00 | 0.02 | 0.00 | 88 | 1012.0 |
| 20260510104547 | 65 | 0 | 0.0 | 2.6 | 0.00 | 0.02 | 0.00 | 88 | 1012.0 |
| 20260510104030 | 65 | 0 | 0.9 | 2.6 | 0.00 | 0.02 | 0.00 | 88 | 1012.2 |
| 20260510103530 | 65 | 52 | 0.9 | 1.7 | 0.00 | 0.02 | 0.00 | 88 | 1012.1 |
| 20260510103049 | 65 | 0 | 0.0 | 1.7 | 0.00 | 0.02 | 0.00 | 88 | 1011.9 |
| 20260510102533 | 66 | 33 | 0.0 | 1.7 | 0.00 | 0.02 | 0.00 | 88 | 1012.1 |
| 20260510102031 | 66 | 0 | 0.0 | 1.7 | 0.00 | 0.02 | 0.00 | 88 | 1012.0 |
| 20260510101555 | 66 | 0 | 0.0 | 0.9 | 0.00 | 0.02 | 0.00 | 88 | 1012.1 |
| 20260510101031 | 66 | 0 | 0.0 | 1.7 | 0.00 | 0.02 | 0.00 | 88 | 1012.0 |
| 20260510100535 | 66 | 0 | 0.0 | 3.5 | 0.00 | 0.02 | 0.00 | 88 | 1011.9 |
| 20260510100043 | 66 | 33 | 0.9 | 3.5 | 0.00 | 0.02 | 0.00 | 88 | 1011.9 |
| 20260510095531 | 66 | 36 | 1.7 | 3.5 | 0.00 | 0.02 | 0.00 | 88 | 1011.9 |
| 20260510095030 | 67 | 0 | 0.0 | 1.7 | 0.00 | 0.02 | 0.00 | 88 | 1011.9 |
| 20260510094551 | 67 | 149 | 0.9 | 3.5 | 0.00 | 0.02 | 0.00 | 88 | 1011.9 |
| 20260510094031 | 67 | 149 | 0.9 | 3.5 | 0.00 | 0.02 | 0.00 | 88 | 1011.7 |
| 20260510093534 | 67 | 149 | 0.9 | 3.5 | 0.00 | 0.02 | 0.00 | 88 | 1011.7 |
| 20260510093048 | 67 | 149 | 1.7 | 4.3 | 0.00 | 0.02 | 0.00 | 88 | 1011.6 |
| 20260510092534 | 67 | 149 | 0.9 | 4.3 | 0.00 | 0.02 | 0.00 | 87 | 1011.6 |
| 20260510092031 | 67 | 149 | 1.7 | 5.2 | 0.00 | 0.02 | 0.00 | 86 | 1011.6 |
| 20260510091548 | 67 | 170 | 1.7 | 5.2 | 0.00 | 0.02 | 0.00 | 86 | 1011.5 |
| 20260510091030 | 67 | 175 | 1.7 | 3.5 | 0.00 | 0.02 | 0.00 | 85 | 1011.5 |
| 20260510090531 | 67 | 210 | 1.7 | 3.5 | 0.00 | 0.02 | 0.00 | 85 | 1011.5 |
| 20260510090056 | 67 | 210 | 1.7 | 3.5 | 0.00 | 0.02 | 0.00 | 85 | 1011.5 |
| 20260510085533 | 67 | 141 | 0.9 | 3.5 | 0.00 | 0.02 | 0.00 | 85 | 1011.5 |
| 20260510085033 | 67 | 0 | 0.0 | 1.7 | 0.00 | 0.02 | 0.00 | 84 | 1011.5 |
| 20260510084545 | 67 | 141 | 0.0 | 1.7 | 0.00 | 0.02 | 0.00 | 84 | 1011.6 |
| 20260510084034 | 68 | 141 | 0.9 | 1.7 | 0.00 | 0.02 | 0.00 | 84 | 1011.5 |
| 20260510083530 | 68 | 141 | 0.9 | 1.7 | 0.00 | 0.02 | 0.00 | 84 | 1011.5 |
| 20260510083048 | 68 | 141 | 0.9 | 1.7 | 0.00 | 0.02 | 0.00 | 84 | 1011.5 |
| 20260510082534 | 68 | 141 | 0.0 | 1.7 | 0.00 | 0.02 | 0.00 | 83 | 1011.6 |
| 20260510082034 | 68 | 141 | 0.0 | 0.9 | 0.00 | 0.02 | 0.00 | 83 | 1011.5 |
| 20260510081546 | 69 | 0 | 0.0 | 0.9 | 0.00 | 0.02 | 0.00 | 82 | 1011.5 |
| 20260510081034 | 69 | 0 | 0.0 | 1.7 | 0.00 | 0.02 | 0.00 | 82 | 1011.5 |
| 20260510080534 | 69 | 0 | 0.0 | 1.7 | 0.00 | 0.02 | 0.00 | 82 | 1011.5 |
| 20260510080059 | 69 | 141 | 0.9 | 1.7 | 0.00 | 0.02 | 0.00 | 81 | 1011.4 |
| 20260510075533 | 70 | 141 | 0.0 | 1.7 | 0.00 | 0.02 | 0.00 | 81 | 1011.5 |
| 20260510075031 | 70 | 0 | 0.0 | 1.7 | 0.00 | 0.02 | 0.00 | 80 | 1011.5 |
| 20260510074551 | 70 | 0 | 0.0 | 1.7 | 0.00 | 0.02 | 0.00 | 80 | 1011.6 |
| 20260510074033 | 71 | 0 | 0.9 | 1.7 | 0.00 | 0.02 | 0.00 | 80 | 1011.5 |
| 20260510073536 | 71 | 141 | 0.0 | 1.7 | 0.00 | 0.02 | 0.00 | 79 | 1011.5 |
| 20260510073108 | 71 | 0 | 0.0 | 0.9 | 0.00 | 0.02 | 0.00 | 79 | 1011.5 |
| 20260510072533 | 72 | 0 | 0.0 | 2.6 | 0.00 | 0.02 | 0.00 | 79 | 1011.6 |
| 20260510072035 | 72 | 141 | 0.0 | 3.5 | 0.00 | 0.02 | 0.00 | 78 | 1011.6 |
| 20260510071546 | 72 | 141 | 0.9 | 3.5 | 0.00 | 0.02 | 0.00 | 78 | 1011.6 |
| 20260510071030 | 73 | 0 | 0.0 | 0.0 | 0.00 | 0.02 | 0.00 | 78 | 1011.8 |
| 20260510070530 | 73 | 0 | 0.0 | 1.7 | 0.00 | 0.02 | 0.00 | 78 | 1011.7 |
| 20260510070056 | 73 | 0 | 0.0 | 2.6 | 0.00 | 0.02 | 0.00 | 78 | 1011.7 |
| 20260510065531 | 73 | 0 | 0.0 | 3.5 | 0.00 | 0.02 | 0.00 | 78 | 1011.8 |
| 20260510065030 | 73 | 141 | 0.9 | 5.2 | 0.00 | 0.02 | 0.00 | 78 | 1011.7 |
| 20260510064619 | 73 | 141 | 1.7 | 5.2 | 0.00 | 0.02 | 0.00 | 78 | 1011.8 |
| 20260510064033 | 74 | 139 | 2.6 | 5.2 | 0.00 | 0.02 | 0.00 | 77 | 1011.8 |
| 20260510063534 | 74 | 140 | 3.5 | 6.1 | 0.00 | 0.02 | 0.00 | 77 | 1011.8 |
| 20260510063048 | 74 | 155 | 3.5 | 6.1 | 0.00 | 0.02 | 0.00 | 77 | 1011.8 |
| 20260510062531 | 74 | 161 | 2.6 | 7.0 | 0.00 | 0.02 | 0.00 | 77 | 1011.7 |
| 20260510062033 | 74 | 152 | 2.6 | 7.8 | 0.00 | 0.02 | 0.00 | 77 | 1011.7 |
| 20260510061548 | 74 | 153 | 4.3 | 7.8 | 0.00 | 0.02 | 0.00 | 77 | 1011.8 |
| 20260510061037 | 75 | 162 | 3.5 | 6.1 | 0.00 | 0.02 | 0.00 | 77 | 1011.7 |
| 20260510060539 | 75 | 169 | 2.6 | 7.0 | 0.00 | 0.02 | 0.00 | 76 | 1011.8 |
| 20260510060046 | 75 | 170 | 2.6 | 7.8 | 0.00 | 0.02 | 0.00 | 76 | 1011.7 |
| 20260510055533 | 75 | 193 | 4.3 | 12.2 | 0.00 | 0.02 | 0.00 | 76 | 1011.6 |
| 20260510055036 | 75 | 161 | 3.5 | 12.2 | 0.00 | 0.02 | 0.00 | 76 | 1011.6 |
| 20260510054546 | 75 | 173 | 5.2 | 9.6 | 0.00 | 0.02 | 0.00 | 76 | 1011.5 |
| 20260510054034 | 75 | 149 | 4.3 | 9.6 | 0.00 | 0.02 | 0.00 | 76 | 1011.5 |
| 20260510053530 | 75 | 174 | 5.2 | 9.6 | 0.00 | 0.02 | 0.00 | 75 | 1011.3 |
| 20260510053050 | 75 | 151 | 6.1 | 10.4 | 0.00 | 0.02 | 0.00 | 75 | 1011.3 |
| 20260510052538 | 76 | 170 | 4.3 | 10.4 | 0.00 | 0.02 | 0.00 | 75 | 1011.2 |
| 20260510052035 | 76 | 152 | 5.2 | 10.4 | 0.00 | 0.02 | 0.00 | 74 | 1011.2 |
| 20260510051552 | 76 | 164 | 5.2 | 13.0 | 0.00 | 0.02 | 0.00 | 74 | 1011.2 |
| 20260510051036 | 76 | 164 | 6.1 | 13.9 | 0.00 | 0.02 | 0.00 | 74 | 1011.1 |
| 20260510050533 | 76 | 138 | 5.2 | 13.9 | 0.00 | 0.02 | 0.00 | 74 | 1011.1 |
| 20260510050058 | 76 | 173 | 4.3 | 11.3 | 0.00 | 0.02 | 0.00 | 74 | 1011.1 |
| 20260510045537 | 76 | 155 | 5.2 | 11.3 | 0.00 | 0.02 | 0.02 | 75 | 1011.0 |
| 20260510045034 | 76 | 164 | 6.1 | 9.6 | 0.00 | 0.02 | 0.02 | 75 | 1011.0 |
| 20260510044552 | 76 | 151 | 4.3 | 7.8 | 0.00 | 0.02 | 0.02 | 75 | 1011.0 |
| 20260510044033 | 76 | 170 | 3.5 | 8.7 | 0.00 | 0.02 | 0.02 | 75 | 1011.0 |
| 20260510043533 | 76 | 170 | 4.3 | 8.7 | 0.00 | 0.02 | 0.02 | 75 | 1011.1 |
| 20260510043047 | 76 | 158 | 4.3 | 7.8 | 0.00 | 0.02 | 0.02 | 75 | 1011.1 |
| 20260510042539 | 76 | 137 | 3.5 | 7.0 | 0.00 | 0.02 | 0.02 | 75 | 1011.1 |
| 20260510042036 | 76 | 155 | 3.5 | 6.1 | 0.00 | 0.02 | 0.02 | 75 | 1011.0 |
| 20260510041555 | 76 | 150 | 2.6 | 6.1 | 0.00 | 0.02 | 0.02 | 75 | 1011.0 |
| 20260510041034 | 76 | 169 | 1.7 | 6.1 | 0.00 | 0.02 | 0.02 | 75 | 1011.0 |
| 20260510040534 | 77 | 146 | 2.6 | 7.0 | 0.00 | 0.02 | 0.02 | 75 | 1011.1 |
| 20260510040053 | 77 | 153 | 2.6 | 7.0 | 0.00 | 0.02 | 0.02 | 74 | 1011.0 |
| 20260510035533 | 77 | 172 | 3.5 | 7.0 | 0.00 | 0.02 | 0.02 | 74 | 1010.9 |
| 20260510035036 | 77 | 149 | 2.6 | 6.1 | 0.00 | 0.02 | 0.02 | 74 | 1011.0 |
| 20260510034609 | 77 | 161 | 3.5 | 7.0 | 0.00 | 0.02 | 0.02 | 74 | 1011.0 |
| 20260510034034 | 77 | 176 | 3.5 | 7.0 | 0.00 | 0.02 | 0.02 | 74 | 1010.9 |
| 20260510033536 | 77 | 153 | 2.6 | 5.2 | 0.00 | 0.02 | 0.02 | 74 | 1010.8 |
| 20260510033052 | 77 | 147 | 2.6 | 5.2 | 0.00 | 0.02 | 0.02 | 74 | 1010.8 |
| 20260510032533 | 77 | 152 | 2.6 | 5.2 | 0.00 | 0.02 | 0.02 | 74 | 1010.7 |
| 20260510032034 | 77 | 178 | 2.6 | 5.2 | 0.00 | 0.02 | 0.02 | 73 | 1010.6 |
| 20260510031547 | 78 | 156 | 2.6 | 5.2 | 0.00 | 0.02 | 0.02 | 73 | 1010.6 |
| 20260510031034 | 78 | 178 | 2.6 | 5.2 | 0.00 | 0.02 | 0.02 | 73 | 1010.5 |
| 20260510030533 | 78 | 158 | 2.6 | 5.2 | 0.00 | 0.02 | 0.02 | 73 | 1010.5 |
| 20260510030046 | 78 | 161 | 2.6 | 5.2 | 0.00 | 0.02 | 0.02 | 73 | 1010.4 |
| 20260510025536 | 78 | 153 | 2.6 | 5.2 | 0.00 | 0.02 | 0.02 | 72 | 1010.4 |
| 20260510025034 | 78 | 178 | 2.6 | 6.1 | 0.00 | 0.02 | 0.02 | 72 | 1010.3 |
| 20260510024545 | 78 | 155 | 2.6 | 6.1 | 0.00 | 0.02 | 0.02 | 72 | 1010.3 |
| 20260510024037 | 78 | 172 | 3.5 | 5.2 | 0.00 | 0.02 | 0.02 | 71 | 1010.3 |
| 20260510023534 | 78 | 174 | 2.6 | 5.2 | 0.00 | 0.02 | 0.02 | 71 | 1010.2 |
| 20260510023049 | 78 | 139 | 2.6 | 5.2 | 0.00 | 0.02 | 0.02 | 70 | 1010.2 |
| 20260510022534 | 79 | 158 | 2.6 | 5.2 | 0.00 | 0.02 | 0.02 | 69 | 1010.1 |
| 20260510022034 | 79 | 172 | 1.7 | 3.5 | 0.00 | 0.02 | 0.02 | 69 | 1010.1 |
| 20260510021558 | 79 | 172 | 1.7 | 2.6 | 0.00 | 0.02 | 0.02 | 69 | 1010.0 |
| 20260510021033 | 80 | 172 | 0.9 | 2.6 | 0.00 | 0.02 | 0.02 | 68 | 1009.9 |
| 20260510020533 | 80 | 172 | 0.9 | 2.6 | 0.00 | 0.02 | 0.02 | 67 | 1009.8 |
| 20260510020047 | 81 | 172 | 1.7 | 3.5 | 0.00 | 0.02 | 0.02 | 65 | 1009.7 |
| 20260510015534 | 81 | 172 | 1.7 | 3.5 | 0.00 | 0.02 | 0.02 | 64 | 1009.6 |
| 20260510015033 | 81 | 198 | 1.7 | 3.5 | 0.00 | 0.02 | 0.02 | 64 | 1009.4 |
| 20260510014552 | 82 | 183 | 1.7 | 5.2 | 0.00 | 0.02 | 0.02 | 64 | 1009.3 |
| 20260510014033 | 82 | 181 | 1.7 | 5.2 | 0.00 | 0.02 | 0.02 | 63 | 1009.2 |
| 20260510013533 | 82 | 185 | 2.6 | 5.2 | 0.00 | 0.02 | 0.02 | 63 | 1009.1 |
| 20260510013046 | 83 | 182 | 2.6 | 5.2 | 0.00 | 0.02 | 0.02 | 63 | 1009.0 |
| 20260510012533 | 83 | 187 | 2.6 | 4.3 | 0.00 | 0.02 | 0.02 | 62 | 1008.9 |
| 20260510012034 | 83 | 187 | 1.7 | 4.3 | 0.00 | 0.02 | 0.02 | 62 | 1008.8 |
| 20260510011555 | 84 | 181 | 2.6 | 4.3 | 0.00 | 0.02 | 0.02 | 62 | 1008.7 |
| 20260510011035 | 84 | 176 | 2.6 | 5.2 | 0.00 | 0.02 | 0.02 | 61 | 1008.6 |
| 20260510010536 | 84 | 178 | 2.6 | 5.2 | 0.00 | 0.02 | 0.02 | 61 | 1008.6 |
| 20260510010049 | 85 | 182 | 1.7 | 6.1 | 0.00 | 0.02 | 0.02 | 61 | 1008.4 |
| 20260510005534 | 85 | 172 | 2.6 | 6.1 | 0.00 | 0.02 | 0.02 | 60 | 1008.5 |
| 20260510005033 | 85 | 178 | 2.6 | 6.1 | 0.00 | 0.02 | 0.02 | 60 | 1008.4 |
| 20260510004551 | 85 | 190 | 2.6 | 6.1 | 0.00 | 0.02 | 0.02 | 59 | 1008.3 |
| 20260510004033 | 86 | 186 | 2.6 | 6.1 | 0.00 | 0.02 | 0.02 | 59 | 1008.4 |
| 20260510003534 | 86 | 201 | 2.6 | 6.1 | 0.00 | 0.02 | 0.02 | 59 | 1008.4 |
| 20260510003102 | 86 | 194 | 2.6 | 7.8 | 0.00 | 0.02 | 0.02 | 59 | 1008.3 |
| 20260510002534 | 86 | 185 | 4.3 | 8.7 | 0.00 | 0.02 | 0.02 | 58 | 1008.4 |
| 20260510002034 | 86 | 187 | 4.3 | 8.7 | 0.00 | 0.02 | 0.02 | 57 | 1008.4 |
| 20260510001552 | 86 | 155 | 3.5 | 6.1 | 0.00 | 0.02 | 0.02 | 55 | 1008.4 |
| 20260510001033 | 87 | 141 | 2.6 | 7.0 | 0.00 | 0.02 | 0.02 | 55 | 1008.3 |
| 20260510000532 | 87 | 160 | 3.5 | 7.0 | 0.00 | 0.02 | 0.02 | 54 | 1008.4 |
| 20260510000053 | 87 | 134 | 3.5 | 6.1 | 0.00 | 0.02 | 0.02 | 52 | 1008.4 |
| 20260509235535 | 88 | 166 | 1.7 | 8.7 | 0.00 | 0.02 | 0.02 | 53 | 1008.5 |
| 20260509235033 | 88 | 174 | 3.5 | 8.7 | 0.00 | 0.02 | 0.02 | 54 | 1008.5 |
| 20260509234551 | 88 | 126 | 2.6 | 5.2 | 0.00 | 0.02 | 0.02 | 54 | 1008.4 |
| 20260509234034 | 88 | 189 | 0.9 | 5.2 | 0.00 | 0.02 | 0.02 | 52 | 1008.4 |
| 20260509233534 | 88 | 230 | 1.7 | 7.0 | 0.00 | 0.02 | 0.02 | 51 | 1008.3 |
| 20260509233050 | 88 | 172 | 4.3 | 7.0 | 0.00 | 0.02 | 0.02 | 53 | 1008.4 |
| 20260509232536 | 88 | 165 | 1.7 | 5.2 | 0.00 | 0.02 | 0.02 | 51 | 1008.4 |
| 20260509232033 | 88 | 152 | 0.9 | 7.0 | 0.00 | 0.02 | 0.02 | 53 | 1008.4 |
| 20260509231547 | 88 | 228 | 2.6 | 7.0 | 0.00 | 0.02 | 0.02 | 51 | 1008.3 |
| 20260509231033 | 89 | 26 | 0.0 | 3.5 | 0.00 | 0.02 | 0.02 | 52 | 1008.3 |
| 20260509230534 | 89 | 82 | 0.9 | 3.5 | 0.00 | 0.02 | 0.02 | 51 | 1008.3 |
| 20260509230049 | 89 | 47 | 1.7 | 5.2 | 0.00 | 0.02 | 0.02 | 50 | 1008.3 |
| 20260509225534 | 89 | 149 | 2.6 | 5.2 | 0.00 | 0.02 | 0.02 | 50 | 1008.2 |
| 20260509225033 | 89 | 150 | 0.9 | 6.1 | 0.00 | 0.02 | 0.02 | 47 | 1008.2 |
| 20260509224545 | 89 | 160 | 2.6 | 6.1 | 0.00 | 0.02 | 0.02 | 48 | 1008.3 |
| 20260509224034 | 89 | 174 | 1.7 | 6.1 | 0.00 | 0.02 | 0.02 | 53 | 1008.3 |
| 20260509223534 | 89 | 224 | 1.7 | 6.1 | 0.00 | 0.02 | 0.02 | 48 | 1008.3 |
| 20260509223046 | 89 | 251 | 1.7 | 6.1 | 0.00 | 0.02 | 0.02 | 50 | 1008.4 |
| 20260509222533 | 89 | 152 | 0.9 | 7.8 | 0.00 | 0.02 | 0.02 | 52 | 1008.4 |
| 20260509222035 | 89 | 241 | 1.7 | 7.8 | 0.00 | 0.02 | 0.02 | 50 | 1008.3 |
| 20260509221548 | 89 | 245 | 4.3 | 7.8 | 0.00 | 0.02 | 0.02 | 51 | 1008.4 |
| 20260509221034 | 89 | 181 | 3.5 | 7.8 | 0.00 | 0.02 | 0.02 | 51 | 1008.3 |
| 20260509220533 | 89 | 114 | 0.9 | 6.1 | 0.00 | 0.02 | 0.02 | 49 | 1008.4 |
| 20260509220045 | 89 | 217 | 2.6 | 7.8 | 0.00 | 0.02 | 0.02 | 50 | 1008.5 |
| 20260509215534 | 89 | 305 | 3.5 | 7.8 | 0.00 | 0.02 | 0.02 | 50 | 1008.4 |
| 20260509215036 | 89 | 261 | 1.7 | 7.0 | 0.00 | 0.02 | 0.02 | 52 | 1008.5 |
| 20260509214600 | 89 | 253 | 0.0 | 5.2 | 0.00 | 0.02 | 0.02 | 50 | 1008.4 |
| 20260509214034 | 89 | 0 | 0.0 | 7.0 | 0.00 | 0.02 | 0.02 | 52 | 1008.4 |
| 20260509213534 | 90 | 286 | 3.5 | 7.0 | 0.00 | 0.02 | 0.02 | 51 | 1008.6 |
| 20260509213049 | 90 | 239 | 3.5 | 7.0 | 0.00 | 0.02 | 0.02 | 53 | 1008.7 |
| 20260509212536 | 89 | 286 | 1.7 | 6.1 | 0.00 | 0.02 | 0.02 | 54 | 1008.6 |
| 20260509212033 | 89 | 0 | 0.9 | 7.0 | 0.00 | 0.02 | 0.02 | 53 | 1008.7 |
| 20260509211549 | 89 | 257 | 2.6 | 8.7 | 0.00 | 0.02 | 0.02 | 50 | 1008.8 |
| 20260509211035 | 89 | 222 | 5.2 | 8.7 | 0.00 | 0.02 | 0.02 | 52 | 1008.9 |
| 20260509210534 | 89 | 248 | 3.5 | 8.7 | 0.00 | 0.02 | 0.02 | 50 | 1008.9 |
| 20260509210049 | 89 | 291 | 0.9 | 8.7 | 0.00 | 0.02 | 0.02 | 55 | 1009.0 |
| 20260509205534 | 89 | 209 | 4.3 | 8.7 | 0.00 | 0.02 | 0.02 | 56 | 1009.2 |
| 20260509205035 | 89 | 189 | 2.6 | 8.7 | 0.00 | 0.02 | 0.02 | 58 | 1009.2 |
| 20260509204546 | 89 | 169 | 4.3 | 8.7 | 0.00 | 0.02 | 0.02 | 54 | 1009.3 |
| 20260509204033 | 89 | 195 | 3.5 | 8.7 | 0.00 | 0.02 | 0.02 | 56 | 1009.5 |
| 20260509203534 | 89 | 320 | 3.5 | 9.6 | 0.00 | 0.02 | 0.02 | 58 | 1009.6 |
| 20260509203046 | 89 | 220 | 4.3 | 9.6 | 0.00 | 0.02 | 0.02 | 59 | 1009.6 |
| 20260509202536 | 88 | 216 | 2.6 | 8.7 | 0.00 | 0.02 | 0.02 | 61 | 1009.8 |
| 20260509202034 | 87 | 208 | 4.3 | 8.7 | 0.00 | 0.02 | 0.02 | 62 | 1009.8 |
| 20260509201548 | 86 | 208 | 3.5 | 10.4 | 0.00 | 0.02 | 0.02 | 61 | 1010.0 |
| 20260509201033 | 88 | 214 | 3.5 | 10.4 | 0.00 | 0.02 | 0.02 | 62 | 1010.0 |
| 20260509200534 | 87 | 264 | 4.3 | 10.4 | 0.00 | 0.02 | 0.02 | 60 | 1010.2 |
| 20260509200101 | 87 | 180 | 3.5 | 7.0 | 0.00 | 0.02 | 0.02 | 62 | 1010.2 |
| 20260509195534 | 85 | 216 | 2.6 | 7.8 | 0.00 | 0.02 | 0.02 | 64 | 1010.4 |
| 20260509195033 | 88 | 176 | 2.6 | 7.8 | 0.00 | 0.02 | 0.02 | 63 | 1010.5 |
| 20260509194552 | 87 | 230 | 2.6 | 7.8 | 0.00 | 0.02 | 0.02 | 61 | 1010.5 |
| 20260509194036 | 87 | 222 | 4.3 | 7.8 | 0.00 | 0.02 | 0.02 | 61 | 1010.6 |
| 20260509193534 | 87 | 249 | 3.5 | 10.4 | 0.00 | 0.02 | 0.02 | 65 | 1010.7 |
| 20260509193049 | 87 | 230 | 4.3 | 10.4 | 0.00 | 0.02 | 0.02 | 65 | 1010.7 |
| 20260509192537 | 87 | 240 | 1.7 | 7.8 | 0.00 | 0.02 | 0.02 | 61 | 1010.7 |
| 20260509192033 | 86 | 261 | 2.6 | 7.8 | 0.00 | 0.02 | 0.02 | 65 | 1010.7 |
| 20260509191547 | 87 | 273 | 2.6 | 8.7 | 0.00 | 0.02 | 0.02 | 65 | 1010.8 |
| 20260509191036 | 87 | 241 | 2.6 | 8.7 | 0.00 | 0.02 | 0.02 | 66 | 1010.8 |
| 20260509190530 | 86 | 284 | 4.3 | 10.4 | 0.00 | 0.02 | 0.02 | 65 | 1010.9 |
| 20260509190048 | 86 | 174 | 3.5 | 10.4 | 0.00 | 0.02 | 0.02 | 64 | 1010.9 |
| 20260509185532 | 86 | 237 | 6.1 | 8.7 | 0.00 | 0.02 | 0.02 | 64 | 1011.0 |
| 20260509185031 | 84 | 234 | 3.5 | 7.8 | 0.00 | 0.02 | 0.02 | 70 | 1011.0 |
| 20260509184548 | 83 | 212 | 3.5 | 8.7 | 0.00 | 0.02 | 0.02 | 71 | 1011.1 |
| 20260509184033 | 85 | 180 | 4.3 | 10.4 | 0.00 | 0.02 | 0.02 | 67 | 1011.1 |
| 20260509183531 | 84 | 168 | 5.2 | 10.4 | 0.00 | 0.02 | 0.02 | 69 | 1011.1 |
| 20260509183103 | 84 | 245 | 3.5 | 11.3 | 0.00 | 0.02 | 0.02 | 72 | 1011.3 |
| 20260509182534 | 84 | 215 | 3.5 | 11.3 | 0.00 | 0.02 | 0.02 | 70 | 1011.3 |
| 20260509182034 | 84 | 224 | 6.1 | 11.3 | 0.00 | 0.02 | 0.02 | 71 | 1011.3 |
| 20260509181553 | 83 | 248 | 5.2 | 10.4 | 0.00 | 0.02 | 0.02 | 71 | 1011.4 |
| 20260509181033 | 84 | 225 | 6.1 | 10.4 | 0.00 | 0.02 | 0.02 | 70 | 1011.3 |
| 20260509180532 | 84 | 187 | 3.5 | 9.6 | 0.00 | 0.02 | 0.02 | 69 | 1011.5 |
| 20260509180055 | 84 | 257 | 6.1 | 10.4 | 0.00 | 0.02 | 0.02 | 71 | 1011.5 |
| 20260509175531 | 84 | 216 | 6.1 | 10.4 | 0.00 | 0.02 | 0.02 | 71 | 1011.4 |
| 20260509175031 | 83 | 216 | 4.3 | 8.7 | 0.00 | 0.02 | 0.02 | 77 | 1011.6 |
| 20260509174552 | 81 | 225 | 6.1 | 9.6 | 0.00 | 0.02 | 0.02 | 76 | 1011.6 |
| 20260509174034 | 81 | 212 | 4.3 | 9.6 | 0.00 | 0.02 | 0.02 | 75 | 1011.8 |
| 20260509173532 | 82 | 226 | 6.1 | 10.4 | 0.00 | 0.02 | 0.02 | 73 | 1011.8 |
| 20260509173052 | 83 | 236 | 5.2 | 11.3 | 0.00 | 0.02 | 0.02 | 74 | 1011.9 |
| 20260509172531 | 81 | 212 | 6.1 | 11.3 | 0.00 | 0.02 | 0.02 | 76 | 1011.9 |
| 20260509172033 | 82 | 236 | 6.1 | 11.3 | 0.00 | 0.02 | 0.02 | 74 | 1011.8 |
| 20260509171547 | 82 | 174 | 4.3 | 12.2 | 0.00 | 0.02 | 0.02 | 77 | 1011.8 |
| 20260509171033 | 82 | 178 | 7.0 | 12.2 | 0.00 | 0.02 | 0.02 | 74 | 1011.7 |
| 20260509170533 | 81 | 249 | 5.2 | 13.9 | 0.00 | 0.02 | 0.02 | 77 | 1011.6 |
| 20260509170047 | 81 | 211 | 7.8 | 13.9 | 0.00 | 0.02 | 0.02 | 77 | 1011.7 |
| 20260509165533 | 81 | 188 | 8.7 | 13.9 | 0.00 | 0.02 | 0.02 | 78 | 1011.6 |
| 20260509165033 | 81 | 190 | 8.7 | 14.8 | 0.00 | 0.02 | 0.02 | 77 | 1011.6 |
| 20260509164545 | 80 | 247 | 7.8 | 14.8 | 0.00 | 0.02 | 0.02 | 77 | 1011.6 |
| 20260509164033 | 80 | 205 | 7.8 | 13.9 | 0.00 | 0.02 | 0.02 | 82 | 1011.8 |
| 20260509163535 | 80 | 217 | 5.2 | 11.3 | 0.00 | 0.02 | 0.02 | 78 | 1011.8 |
| 20260509163056 | 81 | 212 | 6.1 | 11.3 | 0.00 | 0.02 | 0.02 | 78 | 1011.8 |
| 20260509162533 | 81 | 191 | 6.1 | 11.3 | 0.00 | 0.02 | 0.02 | 80 | 1011.8 |
| 20260509162032 | 81 | 216 | 5.2 | 10.4 | 0.00 | 0.02 | 0.02 | 78 | 1012.0 |
| 20260509161548 | 81 | 259 | 5.2 | 10.4 | 0.00 | 0.02 | 0.02 | 82 | 1012.0 |
| 20260509161033 | 81 | 211 | 4.3 | 10.4 | 0.00 | 0.02 | 0.02 | 81 | 1012.0 |
| 20260509160533 | 80 | 201 | 2.6 | 8.7 | 0.01 | 0.02 | 0.02 | 80 | 1012.1 |
| 20260509160049 | 79 | 189 | 3.5 | 8.7 | 0.02 | 0.02 | 0.02 | 81 | 1012.3 |
| 20260509155533 | 78 | 211 | 2.6 | 7.0 | 0.02 | 0.02 | 0.02 | 85 | 1012.3 |
| 20260509155032 | 78 | 212 | 4.3 | 7.0 | 0.02 | 0.02 | 0.02 | 87 | 1012.3 |
| 20260509154546 | 77 | 211 | 2.6 | 7.0 | 0.02 | 0.02 | 0.02 | 88 | 1012.4 |
| 20260509154032 | 77 | 170 | 4.3 | 7.0 | 0.02 | 0.02 | 0.02 | 91 | 1012.2 |
| 20260509153532 | 77 | 167 | 1.7 | 6.1 | 0.02 | 0.02 | 0.02 | 93 | 1012.5 |
| 20260509153054 | 76 | 93 | 1.7 | 6.1 | 0.02 | 0.02 | 0.02 | 94 | 1012.6 |
| 20260509152533 | 75 | 156 | 2.6 | 6.1 | 0.02 | 0.02 | 0.02 | 93 | 1012.5 |
| 20260509152033 | 76 | 137 | 2.6 | 7.0 | 0.02 | 0.02 | 0.02 | 93 | 1012.6 |
| 20260509151553 | 75 | 166 | 2.6 | 7.0 | 0.02 | 0.02 | 0.02 | 94 | 1012.5 |
| 20260509151032 | 75 | 148 | 2.6 | 7.0 | 0.02 | 0.02 | 0.02 | 95 | 1012.5 |
| 20260509150538 | 75 | 143 | 3.5 | 7.0 | 0.01 | 0.01 | 0.01 | 94 | 1012.4 |
| 20260509150050 | 74 | 106 | 3.5 | 6.1 | 0.00 | 0.00 | 0.00 | 94 | 1012.4 |
| 20260509145534 | 74 | 130 | 2.6 | 6.1 | 0.00 | 0.00 | 0.00 | 93 | 1012.4 |
| 20260509145035 | 74 | 133 | 2.6 | 6.1 | 0.00 | 0.00 | 0.00 | 94 | 1012.6 |
| 20260509144548 | 74 | 92 | 1.7 | 3.5 | 0.00 | 0.00 | 0.00 | 94 | 1012.5 |
| 20260509144034 | 74 | 0 | 0.0 | 3.5 | 0.00 | 0.00 | 0.00 | 94 | 1012.6 |
| 20260509143535 | 74 | 47 | 1.7 | 3.5 | 0.00 | 0.00 | 0.00 | 94 | 1012.6 |
| 20260509143056 | 74 | 82 | 0.9 | 2.6 | 0.00 | 0.00 | 0.00 | 94 | 1012.5 |
| 20260509142533 | 74 | 85 | 1.7 | 3.5 | 0.00 | 0.00 | 0.00 | 94 | 1012.3 |
| 20260509142036 | 74 | 90 | 0.9 | 3.5 | 0.00 | 0.00 | 0.00 | 94 | 1012.4 |
| 20260509141548 | 74 | 70 | 0.9 | 3.5 | 0.00 | 0.00 | 0.00 | 94 | 1012.2 |
| 20260509141034 | 74 | 153 | 0.9 | 3.5 | 0.00 | 0.00 | 0.00 | 94 | 1012.2 |
| 20260509140533 | 74 | 203 | 0.0 | 3.5 | 0.00 | 0.00 | 0.00 | 94 | 1012.0 |
| 20260509140057 | 74 | 54 | 1.7 | 3.5 | 0.00 | 0.00 | 0.00 | 94 | 1011.9 |
| 20260509135535 | 74 | 31 | 1.7 | 3.5 | 0.00 | 0.00 | 0.00 | 94 | 1011.8 |
| 20260509135036 | 74 | 2 | 0.0 | 2.6 | 0.00 | 0.00 | 0.00 | 94 | 1011.7 |
| 20260509134544 | 73 | 71 | 0.0 | 2.6 | 0.00 | 0.00 | 0.00 | 94 | 1011.6 |
| 20260509134035 | 74 | 345 | 0.0 | 7.0 | 0.00 | 0.00 | 0.00 | 94 | 1011.6 |
| 20260509133535 | 74 | 51 | 1.7 | 7.0 | 0.00 | 0.00 | 0.00 | 94 | 1011.6 |
| 20260509133049 | 73 | 40 | 2.6 | 6.1 | 0.00 | 0.00 | 0.00 | 94 | 1011.6 |
| 20260509132534 | 73 | 51 | 1.7 | 6.1 | 0.00 | 0.00 | 0.00 | 94 | 1011.5 |
| 20260509132033 | 73 | 76 | 2.6 | 6.1 | 0.00 | 0.00 | 0.00 | 95 | 1011.4 |
| 20260509131552 | 73 | 97 | 1.7 | 4.3 | 0.00 | 0.00 | 0.00 | 95 | 1011.7 |
| 20260509131033 | 73 | 88 | 0.9 | 5.2 | 0.00 | 0.00 | 0.00 | 95 | 1012.0 |
| 20260509130534 | 73 | 126 | 1.7 | 6.1 | 0.00 | 0.00 | 0.00 | 94 | 1011.9 |
| 20260509130047 | 73 | 160 | 2.6 | 6.1 | 0.00 | 0.00 | 0.00 | 94 | 1011.8 |
| 20260509125533 | 73 | 143 | 3.5 | 6.1 | 0.00 | 0.00 | 0.00 | 94 | 1011.7 |
| 20260509125033 | 73 | 51 | 3.5 | 6.1 | 0.00 | 0.00 | 0.00 | 94 | 1011.9 |
| 20260509124551 | 73 | 70 | 1.7 | 7.0 | 0.00 | 0.00 | 0.00 | 94 | 1011.9 |
| 20260509124033 | 72 | 93 | 2.6 | 7.0 | 0.00 | 0.00 | 0.00 | 94 | 1011.8 |
| 20260509123533 | 72 | 97 | 2.6 | 7.0 | 0.00 | 0.00 | 0.00 | 94 | 1012.0 |
| 20260509123114 | 72 | 68 | 4.3 | 9.6 | 0.00 | 0.00 | 0.00 | 94 | 1012.2 |
| 20260509122534 | 72 | 64 | 3.5 | 9.6 | 0.00 | 0.00 | 0.00 | 94 | 1012.2 |
| 20260509122033 | 72 | 70 | 4.3 | 9.6 | 0.00 | 0.00 | 0.00 | 94 | 1012.1 |
| 20260509121545 | 72 | 55 | 3.5 | 7.0 | 0.00 | 0.00 | 0.00 | 94 | 1012.1 |
| 20260509121033 | 72 | 42 | 2.6 | 7.0 | 0.00 | 0.00 | 0.00 | 94 | 1012.0 |
| 20260509120534 | 72 | 48 | 3.5 | 7.0 | 0.00 | 0.00 | 0.00 | 94 | 1011.7 |
| 20260509120049 | 72 | 51 | 3.5 | 7.0 | 0.00 | 0.00 | 0.00 | 94 | 1011.5 |
| 20260509115535 | 72 | 49 | 2.6 | 6.1 | 0.00 | 0.00 | 0.00 | 94 | 1011.3 |
| 20260509115033 | 72 | 45 | 2.6 | 4.3 | 0.00 | 0.00 | 0.00 | 94 | 1011.3 |
| 20260509114553 | 72 | 34 | 1.7 | 4.3 | 0.00 | 0.00 | 0.00 | 94 | 1011.0 |
| 20260509114034 | 72 | 65 | 1.7 | 3.5 | 0.00 | 0.00 | 0.00 | 94 | 1011.1 |
| 20260509113537 | 72 | 76 | 0.9 | 5.2 | 0.00 | 0.00 | 0.00 | 94 | 1010.9 |
| 20260509113047 | 72 | 70 | 0.9 | 5.2 | 0.00 | 0.00 | 0.00 | 94 | 1011.0 |
| 20260509112533 | 72 | 86 | 1.7 | 5.2 | 0.00 | 0.00 | 0.00 | 94 | 1011.0 |
| 20260509112033 | 72 | 84 | 1.7 | 5.2 | 0.00 | 0.00 | 0.00 | 94 | 1011.1 |
| 20260509111546 | 72 | 95 | 2.6 | 5.2 | 0.00 | 0.00 | 0.00 | 94 | 1011.0 |
| 20260509111034 | 72 | 64 | 1.7 | 4.3 | 0.00 | 0.00 | 0.00 | 94 | 1011.0 |
| 20260509110533 | 72 | 61 | 1.7 | 7.0 | 0.00 | 0.00 | 0.00 | 94 | 1010.9 |
| 20260509110044 | 72 | 60 | 1.7 | 7.8 | 0.00 | 0.00 | 0.00 | 94 | 1010.8 |
| 20260509105534 | 72 | 49 | 2.6 | 7.8 | 0.00 | 0.00 | 0.00 | 94 | 1010.8 |